Theta_e
347 350 349 347 350 354 354 354 355 357 354 352 352 354 353 353 351 351 353 354 354 355 356 354 353 353 351 350 349 349 350 351 353 352 351 349 349 348 347 350 348 348 348
346 344 346 348 351 350 350 355 353 354 354 353 353 349 347 342 339 346 350 352 354 355 356 355 354 354 354 350 350 350 351 353 354 353 351 351 349 347 348 347 346 349 347
343 343 346 346 346 349 351 350 352 352 351 353 351 343 343 343 337 335 342 349 352 354 354 356 354 353 353 354 351 351 351 351 351 353 351 351 348 349 347 348 348 349 348
340 342 342 342 345 347 348 350 350 350 351 348 347 349 347 337 341 336 336 341 348 352 353 354 354 354 353 353 353 354 353 353 353 353 353 352 350 347 348 349 348 347 347
340 341 343 344 346 347 347 347 348 348 348 348 348 349 349 344 338 336 337 342 336 350 353 354 354 353 353 354 354 354 354 353 353 352 352 351 349 348 347 345 345 347 346
337 340 340 341 344 345 346 347 347 347 345 346 348 349 349 346 341 341 337 338 340 336 350 354 354 353 353 354 353 353 352 353 352 352 351 350 349 347 346 347 345 346 347
335 337 338 341 343 346 346 345 344 344 344 345 346 346 346 347 348 347 344 339 334 348 352 354 354 353 352 352 352 353 351 349 348 348 350 350 346 346 346 347 346 345 346
333 334 334 335 338 339 341 343 342 342 345 345 345 345 344 344 346 346 347 347 347 349 349 351 352 352 350 350 350 350 350 349 348 348 348 347 345 343 343 345 344 346 347
331 333 333 333 336 332 338 339 341 343 343 343 342 343 344 344 345 344 344 345 345 346 348 349 350 352 351 349 347 348 349 348 347 348 346 345 345 343 341 342 341 344 345
330 332 333 332 332 337 335 335 338 340 342 342 342 342 343 343 344 342 340 342 343 344 344 346 346 348 349 348 347 348 346 347 347 344 341 341 340 338 338 338 339 343 347
330 331 332 331 334 337 338 338 339 340 341 341 339 339 339 339 341 342 341 341 342 343 343 344 343 343 342 341 341 342 341 341 339 338 338 338 338 339 338 335 339 339 342
331 331 332 330 333 334 334 333 329 336 338 339 337 335 336 337 339 340 339 336 340 340 341 341 338 337 337 337 337 338 336 336 336 336 336 337 337 337 339 338 336 337 341
332 331 331 331 330 334 335 335 335 335 336 338 339 339 338 336 337 338 339 339 339 340 339 337 336 335 337 336 337 335 336 336 336 335 337 338 336 336 337 337 337 336 339
331 331 330 331 331 330 334 328 329 330 335 335 336 337 337 333 330 331 331 334 335 336 337 337 337 337 336 336 336 336 336 336 336 337 337 337 337 337 337 337 337 337 335
331 332 329 329 330 330 328 330 327 327 329 329 329 329 330 326 324 323 324 325 325 328 332 330 330 333 333 333 333 335 335 335 335 335 337 336 337 337 337 338 337 338 338
330 332 330 328 328 331 329 327 327 327 326 327 328 326 326 325 325 324 323 322 321 323 329 332 334 334 333 335 332 331 332 331 332 331 331 330 330 330 331 332 333 333 335
328 326 326 325 324 327 327 332 331 329 328 327 326 327 328 327 327 327 326 325 325 324 328 330 329 329 330 331 330 329 328 329 328 327 328 328 328 328 328 329 329 332 331
326 325 324 323 322 324 324 324 328 331 331 326 325 324 325 327 327 328 327 324 327 328 327 329 328 329 329 328 327 327 327 327 326 325 326 327 327 327 327 326 329 329 330
320 320 321 322 321 322 321 321 322 323 324 332 325 326 324 322 322 322 323 325 328 326 326 327 328 328 328 327 327 326 327 328 326 326 325 327 326 326 325 325 326 327 327
324 321 321 322 322 321 320 321 321 320 321 321 325 329 323 323 324 325 325 326 329 328 326 326 326 327 327 326 325 326 326 326 324 325 326 326 325 325 324 323 324 325 325
323 324 323 323 323 323 323 322 322 322 320 319 320 322 325 321 321 322 325 329 327 322 323 323 322 326 326 326 325 325 325 324 326 325 325 326 325 325 324 324 325 324 323
323 324 324 322 323 322 322 322 323 323 323 322 322 322 319 319 321 323 322 321 322 323 324 323 324 322 323 324 324 323 323 322 322 324 323 323 324 323 323 323 323 323 323
323 322 322 321 322 321 321 321 321 321 322 321 322 321 322 323 322 322 322 322 325 324 323 323 324 324 323 324 324 323 323 323 322 322 324 324 324 324 323 323 323 323 323
322 320 321 321 320 320 319 320 319 319 319 319 321 321 320 320 321 320 320 319 320 321 321 320 320 320 320 321 322 321 321 322 322 323 323 323 325 324 323 323 322 322 322
321 319 319 319 318 317 316 316 316 316 316 317 317 317 317 317 318 317 317 316 316 316 317 317 317 316 316 316 315 314 316 317 320 321 322 322 322 321 321 322 322 321 322
316 315 315 314 313 313 312 312 313 313 314 314 315 315 316 315 315 315 314 315 314 314 314 313 313 313 313 311 311 310 309 305 306 309 316 319 320 321 320 319 320 319 321
Wind_Speed
16 18 22 23 20 21 23 29 31 32 37 43 46 29 36 27 21 28 29 29 31 30 28 27 29 30 31 31 24 24 22 22 14 19 19 23 19 16 17 14 16 14 17
25 22 23 18 21 22 23 23 27 30 35 38 37 32 23 9 10 20 27 31 32 32 31 31 28 27 29 30 27 25 25 23 20 17 18 21 16 19 15 17 15 14 14
24 26 19 24 25 24 26 26 24 24 30 34 27 28 30 32 45 41 38 33 35 35 30 30 30 29 28 26 30 27 26 25 21 19 19 19 23 22 19 15 13 13 12
25 25 24 24 24 25 26 27 25 24 22 18 17 25 37 47 41 30 32 30 34 36 35 33 31 32 31 30 29 27 27 23 21 20 19 19 20 19 16 14 12 15 15
24 24 21 23 22 24 25 25 26 25 21 17 14 19 31 40 45 37 15 26 39 50 37 33 32 32 32 34 28 26 23 23 19 19 19 18 19 13 12 11 16 17 10
22 19 19 19 22 23 24 22 22 21 19 19 16 17 21 38 50 36 22 24 37 47 37 34 31 29 34 35 32 29 29 26 22 20 17 18 16 8 13 14 13 13 4
20 19 20 21 20 18 18 16 15 15 13 14 13 14 16 21 29 28 36 35 32 38 29 26 25 25 28 32 29 35 30 26 27 26 21 17 16 9 14 14 15 14 12
18 18 20 23 19 12 12 15 15 15 17 16 13 13 13 14 14 14 22 29 24 21 19 19 22 26 28 28 28 26 29 29 27 26 26 25 20 17 14 14 15 14 14
18 20 20 27 16 9 5 11 15 16 16 17 15 12 10 9 9 11 14 14 16 18 17 17 19 21 22 28 25 27 22 24 20 24 24 21 17 19 18 15 18 14 10
26 26 22 26 35 16 15 11 17 16 14 10 9 7 6 5 10 8 9 8 11 9 8 7 8 14 17 19 19 19 17 15 15 13 14 15 16 18 18 17 16 18 11
26 23 15 23 25 16 4 4 7 10 10 14 11 7 2 2 4 10 9 10 6 7 10 11 10 10 8 7 9 12 9 9 8 10 11 12 16 18 17 16 19 22 20
23 17 14 13 12 10 17 25 24 14 13 15 14 14 13 8 1 7 9 9 4 3 6 13 12 10 8 7 8 9 9 8 9 13 14 12 14 16 16 16 17 12 17
21 15 14 13 16 22 22 14 13 14 8 9 11 12 11 10 14 14 10 5 2 7 6 8 8 8 7 8 8 9 10 10 11 13 12 13 16 17 15 16 19 18 16
24 18 13 6 9 15 19 23 21 22 20 12 12 14 13 14 12 7 9 9 9 6 6 5 4 4 4 6 7 8 9 11 13 12 14 16 14 13 15 16 19 21 24
24 25 15 6 7 13 15 15 17 20 21 19 17 17 14 14 14 15 11 9 6 6 7 5 6 5 6 7 5 6 6 7 7 8 10 10 9 7 8 11 16 18 18
22 19 22 17 14 8 12 10 10 12 12 14 15 15 16 13 10 9 9 8 7 2 3 7 9 7 4 8 4 3 2 1 1 4 6 7 9 9 11 12 10 12 13
14 14 18 15 19 11 13 8 8 6 8 9 8 7 6 5 4 4 6 7 7 6 7 3 3 3 5 6 9 8 7 7 4 4 5 7 8 8 10 11 11 10 12
13 11 13 13 13 16 16 15 11 10 9 6 6 6 4 2 0 2 5 7 10 8 8 4 4 8 11 8 6 5 6 1 3 4 6 5 6 8 10 12 12 11 11
9 9 13 8 4 3 9 14 16 15 13 9 10 8 6 3 2 4 5 4 5 7 5 5 7 5 7 3 1 3 4 5 3 5 6 6 7 7 9 10 11 11 11
6 2 3 9 9 10 9 13 10 8 8 12 7 11 7 4 5 9 8 6 7 9 4 3 2 7 9 4 3 4 6 9 10 9 11 11 10 5 4 12 14 13 12
16 3 15 21 6 7 8 9 9 7 4 6 8 6 5 5 7 10 7 14 10 2 3 4 1 7 4 7 5 8 11 14 16 16 19 11 10 6 11 10 15 9 9
11 8 11 18 12 12 11 11 17 7 11 13 11 5 6 5 9 14 13 14 11 8 10 10 8 7 8 9 8 5 6 10 15 8 11 9 9 11 13 13 13 12 14
17 13 7 13 12 9 6 12 13 14 13 12 17 22 19 17 18 22 24 26 23 22 21 18 15 9 12 8 7 8 7 11 13 14 11 11 11 15 16 17 16 15 16
7 11 11 15 11 12 14 10 13 14 15 11 10 13 16 17 17 19 18 19 20 19 20 19 19 19 20 17 12 14 14 14 15 18 15 15 13 13 15 17 19 20 20
6 9 12 17 15 16 18 17 16 16 16 15 18 16 14 14 16 20 17 15 15 15 18 17 15 15 17 12 15 19 18 18 16 20 22 21 20 16 18 20 21 20 21
12 13 13 15 16 17 18 18 17 17 16 17 14 13 10 13 12 14 19 19 19 20 18 17 17 17 18 9 13 19 22 23 22 19 20 24 21 21 17 22 22 21 18
Wind_Direction
257 248 249 248 252 254 256 249 244 242 239 236 241 229 214 206 223 232 227 227 224 225 217 219 222 227 235 237 241 240 243 244 247 258 259 264 274 258 240 234 262 259 266
292 265 262 255 260 258 253 251 250 249 247 240 238 225 180 261 228 243 255 237 227 225 222 218 224 221 227 235 232 234 233 235 230 245 251 260 271 237 242 253 259 250 263
302 309 266 262 262 254 254 251 256 257 256 250 243 225 215 221 235 245 247 249 241 228 226 218 218 221 224 222 226 232 237 242 240 234 251 255 259 249 239 233 249 251 263
305 302 288 276 270 261 260 258 254 253 253 257 256 188 197 205 208 229 242 247 249 240 229 220 218 217 220 223 219 221 226 230 232 233 238 243 248 247 217 216 227 260 253
319 305 302 299 282 264 257 259 255 249 247 243 232 209 206 199 216 242 201 240 251 238 228 223 219 220 225 221 219 217 220 220 221 226 236 239 243 216 202 234 252 250 256
320 311 317 307 290 267 257 255 246 240 238 237 227 204 194 202 218 230 220 227 239 257 251 219 221 223 227 224 225 222 220 218 216 219 234 227 231 242 224 228 249 267 268
327 334 332 331 321 267 242 237 224 219 220 230 221 215 208 208 215 225 222 226 229 239 231 223 221 224 227 232 231 223 224 229 235 231 232 232 238 265 242 238 250 252 260
344 339 338 335 322 296 255 236 230 226 222 220 217 224 209 208 219 208 210 213 229 239 241 238 231 228 232 228 229 229 231 228 227 229 234 234 229 250 254 262 265 257 256
334 334 339 339 317 313 243 277 265 244 231 222 225 229 226 207 208 216 223 228 228 233 238 246 247 245 236 230 232 231 231 233 231 235 235 240 237 250 252 261 267 256 252
328 336 341 347 329 252 253 245 277 258 237 217 221 231 220 208 195 210 215 221 243 239 242 235 234 226 223 227 217 217 219 218 221 241 244 241 244 248 253 250 257 255 243
337 342 354 2 349 24 307 253 270 258 182 113 109 111 123 172 220 211 205 214 256 206 224 191 186 171 178 195 198 210 220 221 221 240 248 248 254 248 246 248 257 243 243
336 335 5 358 14 38 82 73 55 28 91 101 94 80 75 82 126 161 184 190 208 215 175 181 181 185 182 187 211 207 209 226 239 245 254 255 258 259 258 261 278 289 248
336 346 347 353 14 36 53 100 95 62 43 91 115 113 102 82 78 77 94 135 170 154 161 171 180 188 205 217 226 220 225 235 245 259 257 255 263 262 257 254 262 262 261
338 327 324 330 23 50 54 56 63 53 56 59 99 97 99 86 70 64 79 96 107 113 129 161 177 172 177 184 203 217 225 233 236 248 263 269 267 264 264 262 260 255 258
333 317 338 337 97 71 67 67 62 62 64 69 66 86 87 73 60 59 71 78 79 116 149 141 151 169 197 210 202 204 211 222 233 250 255 264 273 273 279 273 263 267 266
333 349 344 356 37 94 113 102 93 89 77 66 69 76 86 87 82 71 61 48 39 44 263 240 190 187 198 171 142 88 88 64 45 6 348 332 312 302 297 286 275 286 282
322 339 347 19 5 34 21 153 154 115 98 94 90 83 87 85 77 47 24 7 355 343 303 264 60 83 53 76 56 56 59 70 18 328 311 308 316 308 303 301 309 303 285
322 318 344 39 12 9 7 8 82 152 148 136 121 103 98 97 101 318 322 330 323 283 274 280 120 58 70 59 35 16 341 209 333 298 300 295 295 289 290 302 307 302 313
11 7 337 350 45 349 14 12 23 17 9 137 145 141 125 96 273 278 289 312 292 327 351 43 148 138 105 86 20 341 317 319 316 300 286 279 277 291 308 311 310 318 304
201 42 344 325 33 26 18 18 9 6 348 338 44 161 168 192 247 245 230 221 250 277 264 311 325 181 165 191 253 241 273 273 268 265 270 261 263 232 304 309 296 288 300
31 51 2 332 18 12 45 7 324 307 9 3 356 351 159 332 325 315 244 228 239 292 266 233 215 119 229 210 198 219 260 266 263 250 251 302 243 237 258 269 271 308 313
344 356 1 343 11 359 348 4 340 347 21 15 357 322 289 275 288 317 290 268 297 280 229 218 204 237 240 198 196 224 258 286 302 297 260 273 286 290 301 297 291 288 288
350 338 333 328 319 322 346 1 341 342 356 339 40 35 35 33 30 27 21 18 23 24 30 36 34 26 26 3 299 260 249 284 272 273 295 286 278 285 289 295 294 295 291
351 337 338 325 21 351 13 340 353 358 356 53 28 30 15 11 9 10 17 9 11 5 16 14 28 29 13 0 359 346 356 326 315 296 281 275 262 272 278 284 286 286 287
40 13 357 349 359 3 3 354 355 348 336 5 20 11 359 1 16 5 356 18 12 0 346 344 357 11 351 9 358 2 352 337 328 306 283 289 285 280 282 279 280 281 280
3 13 8 6 5 7 357 348 342 334 8 354 354 348 345 339 347 357 355 355 357 352 346 347 347 347 337 349 346 336 336 342 345 327 308 290 272 272 273 275 279 286 288